Details From YBHI - Broken Hill
To YSDU - Dubbo
Flight Number -
Tags decoded
Created
Modified
Stats Distance 362 nm / 670 km
Max Altitude 0 ft / 0 m
Waypoints 5
Social Downloads 59
Likes 0
Share

Download

Looking for another format? Having issues loading an existing format? Contact us
Advertisement - Login to hide

Notes

Requested: YBHI BHI W516 DU YSDU

Route

YBHI BHI W516 DU YSDU

ID Type Via Altitude (ft/m) Position (lat/lon) Dist (leg/tot) Name
O YBHI APT - 0 / 0 -32.00500 / 141.47100 - / 0 nm Broken Hill
BHI VOR - 0 / 0 -32.00070 / 141.48000 0 / 0 nm BROKEN HILL
AREST FIX W516 (AWY-LO) 0 / 0 -32.18450 / 145.86300 223 / 223 nm
DU NDB W516 (AWY-LO) 0 / 0 -32.21750 / 148.55900 137 / 360 nm DUBBO
O YSDU APT - 0 / 0 -32.21750 / 148.57700 0 / 361 nm Dubbo

Altitude Profile

Advertisement - Login to hide

Weather


0- 5 10 15 20 25 30 35+ Temperature / °C

Clouds and Precipitation
Forecast for 2021-06-25 12:00 UTC. Updated 3 hours ago

Ground ~20,000 ft ~40,000 ft Winds

YBHI

Details ICAO YBHI (BHQ)
Name Broken Hill
Region Australia
Timezone Australia/Broken_Hill (UTC+9.5)
Stats Elevation 958 ft / 292 m (AMSL)
Location -32.005000° 141.471000°
Runways 2
Magnetic Variation 8.392° E

METAR

YBHI 251200Z AUTO 29008KT 9999 // BKN049 08/05 Q1020

Decode

TAF

Not found

Departure Runways

ID Width Length Bearing (true/mag) Surface Threshold Overrun Markings Lighting
05 98 ft / 30 m 8,242 ft / 2,512 m 55.78° / 47.39° ASPHALT 0 ft / 0 m 0 ft / 0 m PREC-APP EDGE THRESHOLD
14 105 ft / 32 m 3,280 ft / 1,000 m 143.11° / 134.72° DIRT 0 ft / 0 m 0 ft / 0 m NONE
23 98 ft / 30 m 8,242 ft / 2,512 m 235.77° / 227.38° ASPHALT 0 ft / 0 m 0 ft / 0 m PREC-APP EDGE THRESHOLD
32 105 ft / 32 m 3,280 ft / 1,000 m 323.11° / 314.72° DIRT 0 ft / 0 m 0 ft / 0 m NONE

YSDU

Details ICAO YSDU (DBO)
Name Dubbo
Region Australia
Timezone Australia/Sydney (UTC+10.0)
Stats Elevation 935 ft / 285 m (AMSL)
Location -32.217500° 148.577000°
Runways 2
Magnetic Variation 11.089° E

METAR

YSDU 251230Z AUTO 29005KT 9999 // BKN040 09/06 Q1019 RF00.0/000.0

Decode

TAF

TAF TAF AMD YSDU 251120Z 2512/2606 33006KT 9999 SCT045 BECMG 2513/2515 33005KT 9999 -SHRA SCT010 SCT025 BECMG 2601/2603 28010KT 9999 NSW SCT045 TEMPO 2518/2600 9999 BKN010 PROB30 2514/2523 0200 FG BKN001

Decode

Destination Runways

ID Width Length Bearing (true/mag) Surface Threshold Overrun Markings Lighting
05 148 ft / 45 m 5,605 ft / 1,708 m 53.60° / 42.52° ASPHALT 0 ft / 0 m 0 ft / 0 m PREC-APP CENTERLINE EDGE THRESHOLD
11 59 ft / 18 m 3,498 ft / 1,066 m 119.17° / 108.09° ASPHALT 0 ft / 0 m 0 ft / 0 m APP
23 148 ft / 45 m 5,605 ft / 1,708 m 233.60° / 222.51° ASPHALT 0 ft / 0 m 0 ft / 0 m PREC-APP CENTERLINE EDGE THRESHOLD
29 59 ft / 18 m 3,498 ft / 1,066 m 299.17° / 288.08° ASPHALT 0 ft / 0 m 0 ft / 0 m APP

Popular Alternatives